Hourly Data Report for February 08, 2017

All times are specified in Local Standard Time (LST). Add 1 hour to adjust for Daylight Saving Time where and when it is observed.

COLVILLE LAKE
NORTHWEST TERRITORIES

67°01'17.040" N
126°07'23.070" W
271.00 m
2200824
71055
WFX

Download Data

Hourly Data (February 2017)
Hourly Data Report for February 8, 2017
Temp Definition
°C
Dew Point Temp Definition
°C
Rel Hum Definition
%
Wind Dir Definition
10's deg

Wind Spd Definition
km/h
Visibility Definition
km
Stn Press Definition
kPa
Hmdx Definition


Wind Chill Definition


Weather Definition


TIME
00:00 -16.0 -18.1 84 20 18   97.20   -25 LegendNANA
01:00 -16.2 -18.1 85 20 18   97.12   -25 LegendNANA
02:00 -16.2 -18.1 85 19 16   97.00   -25 LegendNANA
03:00 -16.5 -18.3 86 20 14   96.95   -24 LegendNANA
04:00 -16.7 -18.5 85 21 15   96.87   -25 LegendNANA
05:00 -16.2 -18.1 86 21 16   96.84   -25 LegendNANA
06:00 -16.5 -18.5 85 22 19   96.79   -26 LegendNANA
07:00 -16.4 -18.5 84 23 14   96.84   -24 LegendNANA
08:00 -16.2 -18.3 84 22 12   96.82   -23 LegendNANA
09:00 -14.1 -16.5 82 31 23   96.87   -24 LegendNANA
10:00 -14.3 -17.2 79 31 20   96.94   -23 LegendNANA
11:00 -16.3 -19.7 75 33 26   97.03   -27 LegendNANA
12:00 -17.7 -21.6 72 32 23   97.14   -28 LegendNANA
13:00 -18.9 -22.7 72 31 16   97.22   -28 LegendNANA
14:00 -19.8 -23.9 70 32 11   97.29   -27 LegendNANA
15:00 -21.2 -25.0 71 32 14   97.33   -30 LegendNANA
16:00 -21.7 -25.2 73 31 8   97.37   -28 LegendNANA
17:00 -23.0 -25.7 78 0 1   97.37   -24 LegendNANA
18:00 -25.5 -27.9 80 22 4   97.39   -30 LegendNANA
19:00 -26.2 -28.8 79 26 9   97.39   -34 LegendNANA
20:00 -27.2 -29.9 78 28 4   97.36   -31 LegendNANA
21:00 -26.3 -28.8 79 31 5   97.34   -31 LegendNANA
22:00 -26.5 -29.1 79 15 2   97.32   -29 LegendNANA
23:00 -29.1 -32.1 75 18 4   97.32   -34 LegendNANA

Notes on Data Quality.

Legend

  • E = Estimated
  • M = Missing
  • NA = Not Available
  • ‡ = Partner data that is not subject to review by the National Climate Archives
Date modified: